Location: Meanaryar
(48.4161°N, 4.7315°W)
Time: 16:34:34
(UTC+00:00)

CREW DRAGON DEMO-1 DEB - Pass Details

Date: 18 September 2020
Orbit: 361 x 363 km, 51.6° (Epoch: 29 October)

Event Time Altitude Azimuth Distance (km) Brightness Sun altitude
Rises 20:03:35 0° 284° (WNW) 2,198 8.4 -16.8°
Reaches altitude 10° 20:05:40 10° 291° (WNW) 1,352 7.0 -17.2°
Maximum altitude 20:08:35 44° 6° (N) 516 3.6 -17.6°
Enters shadow 20:09:07 39° 39° (NE) 567 3.5 -17.7°
